Wetbulb
73.91 71.24 74.63 71.89 62.75 61.96 57.03 58.15 62.58 59.98 59.73 63.29 63.16 61.62 60.16 61.30 58.30 55.49 72.25 73.42 72.50 73.24 74.46 75.89 75.88 75.54 75.17 74.99 76.15 74.49 74.58 74.38 73.28 72.29 72.32 73.70 74.20 73.93 73.83 74.13 74.93 74.98 75.12 75.64 74.61 74.53 74.20 74.50 74.38
70.56 70.49 71.80 68.31 59.96 55.79 55.77 59.84 59.40 61.41 62.75 63.73 62.99 62.39 60.95 60.34 65.61 67.26 69.41 72.99 73.17 73.39 74.31 75.31 75.57 76.16 75.52 75.10 74.68 74.37 73.03 73.19 74.07 72.76 71.69 72.72 72.94 72.75 72.81 73.62 73.30 74.58 74.56 74.91 74.65 74.30 74.81 75.23 74.66
69.20 69.17 66.67 61.86 58.33 54.07 54.97 59.05 60.77 62.35 62.97 62.46 60.59 63.63 62.41 62.64 67.80 67.76 72.20 73.37 73.52 73.76 74.53 75.38 75.94 74.72 75.43 74.91 74.76 73.60 73.69 73.85 73.89 73.01 72.75 71.45 71.57 71.17 72.49 73.13 72.07 73.18 74.04 73.91 73.94 74.60 74.51 74.58 74.21
69.31 69.01 65.22 57.58 53.63 56.76 56.86 57.49 57.80 60.29 59.70 62.57 62.39 59.32 64.83 67.29 68.96 70.84 72.95 73.28 73.37 74.05 74.91 75.60 75.88 75.32 75.07 74.58 73.69 73.14 73.67 73.38 72.98 72.14 70.56 70.65 71.35 70.97 71.54 71.47 71.25 71.90 72.34 71.98 72.82 73.32 74.39 74.41 74.04
68.53 64.58 57.08 54.39 53.56 55.45 55.65 56.21 55.30 53.90 54.14 56.02 60.29 58.46 61.71 61.95 68.56 72.94 72.87 72.85 72.27 73.38 74.04 75.20 75.48 75.31 75.21 74.90 73.86 73.28 73.88 73.37 72.55 70.74 69.78 70.11 70.35 69.41 69.45 69.43 69.70 70.00 70.06 70.51 71.58 72.35 73.10 74.00 74.12
63.91 61.79 54.20 51.11 51.38 54.29 54.46 55.22 54.19 52.97 53.65 53.89 55.01 57.70 59.95 62.84 66.47 72.39 73.18 72.82 73.03 73.05 73.57 73.94 75.73 75.46 75.62 74.53 74.06 73.39 73.51 73.07 71.54 70.48 69.72 69.67 69.96 69.40 68.16 68.21 69.00 69.31 68.58 68.58 69.68 70.92 73.31 73.08 73.39
60.24 59.18 53.71 52.71 51.35 52.07 51.99 54.70 53.45 53.14 52.65 52.48 55.37 54.27 59.99 58.42 66.43 72.82 73.06 73.31 73.31 73.20 73.48 74.09 74.83 75.86 75.74 75.40 74.54 73.55 73.24 72.99 71.41 70.71 69.85 68.97 68.83 68.81 68.02 67.40 67.16 67.67 67.76 67.34 68.43 69.03 72.02 72.52 73.06
62.81 60.08 53.50 53.22 50.38 49.62 52.80 53.29 54.75 53.87 52.04 55.20 55.50 52.10 54.83 57.09 66.20 72.36 72.50 72.53 72.95 73.39 74.11 74.66 75.47 75.65 74.77 74.37 75.62 74.20 73.56 73.40 72.24 71.25 70.55 69.68 68.44 68.14 67.74 67.10 66.74 66.42 66.50 66.36 66.76 67.66 69.60 69.35 69.85
58.04 56.07 52.36 49.66 49.16 50.95 53.59 51.94 55.03 55.08 53.21 52.71 53.21 53.13 55.06 59.82 65.38 68.89 70.49 70.76 71.26 72.47 74.13 74.27 74.08 74.87 75.77 75.58 75.77 74.82 74.50 73.71 72.43 72.06 71.26 70.61 70.17 69.26 68.36 68.22 66.36 66.28 66.21 66.04 65.70 66.45 67.08 65.54 67.18
56.70 54.75 49.40 51.72 53.12 52.19 52.77 52.39 52.83 52.72 52.44 51.64 52.41 54.48 56.62 59.61 61.51 61.61 62.16 62.76 63.17 63.79 66.17 69.86 74.23 74.38 75.09 75.23 75.28 75.30 74.94 74.42 73.78 72.97 72.13 71.62 70.57 69.13 67.62 67.04 66.56 66.17 65.99 65.63 65.31 64.87 63.84 64.47 69.61
55.07 52.47 52.35 53.07 54.22 53.44 51.99 50.91 51.56 52.02 50.39 49.34 48.96 51.12 54.49 56.69 57.83 58.06 58.30 58.70 59.16 60.57 61.58 62.34 64.86 69.00 70.13 74.27 74.36 74.85 74.68 74.70 74.19 73.23 72.77 71.86 70.86 69.79 68.58 67.34 66.98 66.74 65.73 65.86 64.74 64.41 63.38 62.32 64.41
52.18 53.11 52.95 53.31 52.05 51.70 51.02 51.58 48.80 50.07 48.53 49.83 50.34 51.68 53.23 53.68 53.62 54.40 54.73 55.82 57.45 58.68 59.80 61.21 63.74 66.83 68.13 72.02 73.16 73.01 73.91 74.15 73.86 73.52 72.67 72.18 71.16 69.93 68.67 67.12 65.66 65.29 64.91 63.52 63.21 62.52 61.98 61.15 60.87
51.33 51.54 52.21 51.71 51.75 51.67 51.71 49.31 48.12 47.19 48.61 50.21 50.72 51.39 51.73 52.48 53.15 53.81 54.25 54.79 55.73 56.08 57.95 59.39 61.36 64.08 68.83 70.48 72.22 72.11 71.62 71.84 73.55 73.07 72.90 72.16 70.82 70.66 69.97 68.15 66.69 65.16 64.45 62.92 60.93 60.39 59.78 59.10 58.41
51.71 50.83 50.18 51.50 51.48 51.08 49.58 48.00 48.98 47.06 48.85 49.01 49.55 50.02 50.87 51.01 51.35 51.83 51.82 52.44 53.46 54.49 55.10 56.62 58.30 60.72 63.18 65.62 69.50 69.09 69.65 69.44 69.60 69.70 70.86 71.80 71.96 71.20 69.95 69.35 67.80 65.99 64.63 63.46 60.89 59.09 58.39 57.60 57.18
50.99 48.16 49.77 50.23 50.62 48.94 50.96 46.93 45.48 47.32 48.22 47.81 48.20 49.05 49.02 49.13 49.85 49.47 50.22 50.49 52.14 52.90 53.29 53.45 54.29 55.91 58.34 60.12 61.42 62.53 64.02 65.34 64.99 66.30 66.47 66.23 65.98 67.54 68.16 68.20 68.29 67.71 65.84 63.46 61.54 59.34 58.17 57.56 56.90
48.33 48.49 46.30 48.29 50.05 49.22 49.66 45.52 45.86 47.42 47.40 46.69 47.20 47.85 48.02 47.69 48.27 49.42 50.03 50.37 51.61 52.17 52.12 52.92 52.77 52.95 53.41 54.56 56.45 57.85 58.96 60.11 60.77 61.40 62.40 63.23 64.23 64.81 64.78 65.36 65.98 67.21 64.80 63.51 61.86 59.84 58.11 57.34 56.78
47.58 44.22 44.74 45.66 48.82 48.72 48.29 46.01 46.46 47.23 46.71 46.10 46.94 47.11 47.19 47.29 48.03 49.21 49.62 50.10 50.54 51.71 52.10 52.43 52.93 52.44 52.93 53.54 53.87 54.49 55.00 55.42 56.29 57.28 58.12 58.78 59.66 60.02 62.14 64.45 64.88 65.12 64.59 65.05 62.41 61.15 58.99 57.54 57.05
43.03 43.74 44.47 45.00 47.34 47.62 46.08 44.72 45.27 45.98 46.25 46.32 46.33 46.57 46.70 46.70 46.96 48.85 49.21 49.97 50.21 50.77 51.63 52.30 52.55 52.56 52.82 53.47 53.43 53.58 53.53 53.93 54.53 54.68 54.87 55.74 56.45 56.79 57.74 59.27 60.89 62.81 62.70 61.98 63.87 62.35 60.84 58.38 57.74
46.03 45.03 44.29 45.86 46.67 45.65 44.50 44.60 44.82 45.07 45.24 45.39 45.94 45.90 45.97 46.14 47.88 49.12 49.74 49.88 49.95 50.37 50.54 51.14 51.35 52.02 52.30 52.10 51.62 51.58 51.27 52.13 52.45 53.45 53.85 54.06 55.31 55.72 55.99 56.17 57.09 58.67 59.56 60.91 61.11 61.90 60.37 58.87 58.13
45.92 44.62 44.64 45.05 45.88 45.74 45.49 44.68 45.31 44.79 44.87 45.73 45.75 45.81 45.82 46.24 46.86 48.22 49.06 50.03 49.05 49.63 50.27 50.35 50.90 51.41 51.94 52.43 52.15 51.95 51.30 52.02 52.61 53.66 53.50 53.83 54.10 54.82 54.89 55.03 55.13 55.85 56.28 57.59 58.62 57.60 58.65 59.04 58.57
45.49 44.12 43.60 43.20 44.98 44.30 43.41 43.81 42.75 44.07 44.87 45.10 45.68 46.41 46.22 46.50 46.47 47.51 48.55 49.20 49.95 49.95 50.54 50.31 50.54 50.90 51.35 52.07 52.17 51.94 51.85 51.76 51.05 51.50 51.84 52.61 53.28 53.90 54.56 54.49 54.26 54.53 55.07 54.92 56.06 57.50 55.68 53.11 56.26
43.08 45.05 44.36 43.29 42.95 41.04 43.28 38.84 42.19 43.43 42.13 43.40 44.57 45.17 45.71 45.99 46.62 47.18 47.77 48.94 50.15 50.38 51.03 50.76 50.59 50.70 51.07 51.80 50.90 50.31 49.32 48.53 50.12 50.80 51.59 52.02 52.64 53.01 54.13 53.73 53.50 53.43 53.85 53.86 54.31 55.20 55.80 54.98 52.35
44.32 44.75 43.48 43.11 42.39 41.22 40.97 39.15 43.73 42.97 40.23 42.17 43.80 44.42 45.10 45.71 45.82 46.01 46.74 47.92 48.66 50.64 50.68 51.13 51.08 50.67 51.06 50.55 50.66 50.12 49.58 49.89 50.60 50.92 50.66 51.08 51.88 52.34 52.48 52.05 51.53 51.54 51.93 52.45 53.50 53.59 53.70 54.73 53.32
44.56 42.89 42.28 42.90 41.93 37.63 40.72 40.12 43.81 40.69 42.00 43.11 43.86 43.90 44.68 45.14 45.74 46.54 47.42 48.15 48.70 50.53 51.23 51.30 50.55 49.67 50.22 50.03 49.49 49.37 48.39 48.70 49.12 49.62 49.88 49.78 50.54 51.15 51.90 51.74 51.47 51.31 51.35 51.53 52.21 53.45 53.51 53.28 53.75
43.85 41.55 38.75 37.35 37.43 38.33 40.55 39.16 43.31 44.48 42.93 44.41 42.94 43.46 44.81 45.33 45.25 45.52 46.19 47.14 47.94 49.19 49.54 49.25 48.77 47.84 48.25 48.27 48.32 48.43 48.66 48.45 48.16 48.61 48.82 49.16 49.14 49.72 50.45 51.24 50.64 50.33 50.46 51.44 51.94 52.55 53.13 52.77 52.44
41.21 40.56 38.25 33.38 35.94 37.74 38.26 36.76 42.94 41.95 43.59 44.59 44.61 44.75 44.73 44.67 45.25 45.48 46.25 46.97 47.53 47.84 47.99 48.01 47.32 46.75 47.44 47.61 47.53 47.82 47.97 48.00 48.28 48.70 49.06 48.60 48.65 49.26 50.44 50.65 50.37 50.07 49.87 49.90 50.91 51.49 53.02 53.16 52.11
40.33 39.33 41.26 36.81 35.92 34.71 39.67 40.04 42.62 40.71 41.26 42.20 42.67 43.49 43.78 43.85 44.76 45.49 46.32 46.97 47.22 47.24 47.04 46.98 46.66 46.62 46.93 46.94 46.94 46.67 46.93 46.96 47.62 47.78 48.22 48.83 48.57 48.72 49.04 49.15 49.21 49.41 49.68 49.48 49.77 50.00 51.86 52.41 51.75
40.82 41.88 37.33 38.72 32.99 32.28 37.09 36.68 39.44 38.65 39.71 41.01 41.72 42.70 43.91 43.74 44.30 45.34 45.98 46.74 47.00 47.13 47.06 46.93 46.42 45.79 46.13 46.23 46.01 45.82 46.26 46.70 47.00 47.16 46.88 47.52 47.96 48.26 48.33 48.02 48.20 48.62 48.96 48.89 48.94 49.56 51.94 51.40 51.39
38.70 38.71 38.05 38.02 37.15 34.54 33.79 38.23 42.60 41.71 42.52 42.35 43.10 44.06 44.37 43.96 44.06 44.73 45.64 46.22 46.50 46.66 46.38 45.76 45.34 45.12 44.71 45.08 45.49 45.46 45.69 46.12 46.72 46.48 46.87 47.29 47.24 46.80 46.92 47.21 47.61 47.84 47.69 48.26 48.10 48.37 49.53 49.41 49.94
38.59 37.88 39.22 36.24 35.20 35.75 33.86 35.70 41.91 41.87 42.17 42.61 43.84 44.50 44.79 44.22 44.40 44.89 45.20 45.44 45.43 45.30 44.88 44.25 44.12 43.83 44.62 45.04 44.71 44.65 45.09 45.36 45.25 45.45 45.96 46.54 46.25 46.84 47.09 46.62 46.56 46.95 47.24 47.67 47.27 47.62 47.94 48.04 48.12
MSLP
1012.12 1011.85 1011.62 1011.11 1010.36 1009.42 1009.71 1010.37 1010.36 1009.79 1009.52 1009.90 1009.84 1009.44 1009.71 1009.82 1010.12 1011.56 1013.06 1013.21 1013.50 1013.86 1014.19 1014.94 1015.52 1015.64 1015.85 1015.80 1016.05 1016.22 1016.36 1016.39 1016.51 1016.58 1016.57 1016.56 1016.46 1016.24 1016.07 1015.99 1016.05 1015.97 1015.87 1015.76 1015.68 1015.63 1015.58 1015.57 1015.50
1011.93 1011.85 1011.39 1010.22 1009.39 1008.98 1010.01 1010.39 1010.28 1010.33 1010.23 1010.20 1009.93 1009.64 1009.63 1010.41 1011.10 1012.04 1012.58 1013.54 1013.53 1013.91 1014.26 1014.68 1015.69 1015.75 1015.87 1016.02 1016.25 1016.47 1016.60 1016.60 1016.59 1016.73 1016.73 1016.83 1016.69 1016.57 1016.42 1016.28 1016.13 1016.17 1016.11 1016.12 1016.03 1015.93 1015.83 1015.79 1015.83
1011.83 1011.61 1010.30 1009.69 1009.52 1009.66 1010.18 1010.75 1010.79 1010.66 1010.49 1010.13 1009.74 1010.17 1010.42 1011.75 1012.00 1012.24 1013.12 1013.63 1013.68 1013.98 1014.35 1014.95 1015.81 1015.97 1016.11 1016.15 1016.29 1016.54 1016.70 1016.78 1016.78 1016.77 1016.89 1016.89 1016.84 1016.83 1016.74 1016.58 1016.40 1016.57 1016.45 1016.44 1016.38 1016.24 1016.14 1016.11 1016.06
1011.53 1010.87 1010.33 1009.55 1009.96 1010.91 1010.96 1011.21 1011.31 1010.63 1010.63 1010.64 1010.50 1010.39 1012.00 1013.58 1013.34 1013.55 1013.75 1013.73 1013.88 1014.25 1014.53 1015.41 1015.81 1015.96 1016.16 1016.24 1016.38 1016.58 1016.77 1016.86 1016.96 1017.05 1017.07 1016.99 1016.95 1017.08 1016.99 1016.78 1016.75 1016.68 1016.68 1016.75 1016.60 1016.51 1016.39 1016.26 1016.20
1011.36 1010.40 1009.71 1009.94 1010.66 1011.26 1011.54 1011.82 1011.52 1011.14 1011.14 1011.16 1011.02 1011.23 1012.41 1014.00 1014.15 1014.09 1014.28 1014.31 1014.26 1014.51 1014.77 1015.34 1015.90 1015.99 1016.08 1016.20 1016.39 1016.57 1016.74 1016.88 1016.99 1017.04 1017.09 1017.06 1017.06 1017.15 1017.17 1017.02 1016.97 1016.91 1016.96 1016.83 1016.78 1016.83 1016.57 1016.40 1016.37
1010.79 1010.61 1009.83 1010.06 1010.99 1011.70 1011.95 1012.14 1011.83 1011.71 1011.71 1011.90 1011.79 1011.96 1013.22 1014.47 1014.72 1014.54 1014.62 1014.50 1014.37 1014.77 1015.01 1015.12 1015.92 1016.12 1016.34 1016.51 1016.65 1016.77 1016.96 1017.12 1017.24 1017.29 1017.29 1017.24 1017.15 1017.20 1017.23 1017.24 1017.20 1017.15 1017.09 1017.03 1017.09 1016.97 1016.69 1016.51 1016.48
1011.00 1010.59 1010.70 1011.06 1011.56 1012.07 1012.69 1012.62 1012.45 1012.39 1012.52 1013.06 1013.43 1012.71 1013.46 1014.62 1015.74 1015.19 1014.92 1014.84 1014.83 1014.92 1015.18 1015.22 1015.28 1015.95 1016.51 1016.59 1016.71 1016.83 1017.01 1017.18 1017.36 1017.47 1017.54 1017.55 1017.52 1017.48 1017.47 1017.38 1017.26 1017.21 1017.18 1017.15 1017.17 1017.09 1016.98 1016.77 1016.68
1011.94 1011.34 1011.28 1011.78 1011.96 1012.93 1013.48 1013.12 1013.37 1013.32 1013.88 1014.32 1014.91 1015.01 1014.86 1016.42 1016.15 1015.49 1015.31 1015.27 1015.30 1015.41 1015.47 1015.22 1015.30 1015.25 1016.00 1016.13 1016.51 1016.73 1016.89 1017.05 1017.20 1017.34 1017.43 1017.52 1017.60 1017.61 1017.65 1017.68 1017.60 1017.49 1017.36 1017.28 1017.17 1017.06 1017.03 1017.08 1016.94
1012.61 1011.68 1011.55 1012.30 1012.59 1013.60 1013.92 1013.67 1014.07 1014.65 1014.72 1016.12 1017.19 1017.59 1017.81 1017.31 1016.30 1015.68 1015.43 1015.50 1015.59 1015.79 1015.63 1015.48 1015.38 1015.20 1015.31 1015.46 1015.67 1016.43 1016.68 1016.90 1017.11 1017.17 1017.30 1017.40 1016.94 1016.91 1017.18 1017.32 1017.74 1017.76 1017.71 1017.58 1017.41 1017.20 1017.10 1017.08 1017.02
1012.34 1012.14 1012.69 1013.44 1013.79 1014.11 1014.50 1014.68 1015.24 1015.13 1015.86 1017.15 1017.75 1018.26 1018.12 1017.55 1016.91 1016.51 1016.28 1016.17 1016.28 1016.38 1016.32 1016.08 1015.29 1015.23 1015.22 1015.39 1015.47 1015.40 1015.51 1015.75 1016.21 1015.94 1016.16 1016.27 1016.33 1016.63 1017.17 1017.43 1017.74 1017.71 1017.66 1017.57 1017.47 1017.33 1017.25 1017.05 1016.09
1012.96 1012.86 1013.66 1014.31 1014.65 1014.96 1015.13 1015.88 1016.70 1016.45 1017.52 1018.91 1019.10 1019.03 1018.61 1018.10 1017.73 1017.38 1017.20 1017.16 1017.16 1017.17 1017.15 1016.87 1016.50 1016.16 1016.24 1015.70 1015.83 1015.60 1015.64 1015.32 1015.36 1015.56 1015.78 1015.94 1016.23 1016.36 1016.54 1016.48 1016.73 1016.81 1017.21 1016.87 1017.14 1017.12 1016.75 1016.50 1016.30
1013.09 1013.92 1014.28 1015.04 1015.46 1015.46 1015.76 1016.79 1017.82 1018.31 1019.57 1020.06 1020.13 1019.82 1019.21 1018.73 1018.55 1018.24 1018.04 1017.89 1017.66 1017.60 1017.61 1017.26 1016.77 1016.09 1015.84 1016.27 1016.48 1016.43 1016.22 1015.85 1015.43 1015.46 1015.74 1015.79 1016.00 1016.03 1016.07 1016.11 1016.17 1016.46 1016.36 1016.37 1016.49 1016.37 1016.48 1016.68 1016.57
1013.51 1014.21 1014.81 1015.52 1015.92 1016.31 1016.93 1017.73 1018.48 1019.68 1020.40 1020.55 1020.41 1020.14 1019.71 1019.38 1019.15 1018.98 1018.80 1018.58 1018.34 1018.13 1017.99 1017.70 1017.22 1016.57 1016.00 1015.99 1016.72 1016.72 1016.71 1016.68 1016.11 1016.00 1015.70 1016.00 1016.13 1015.80 1015.71 1015.76 1015.86 1016.05 1016.10 1016.08 1015.86 1016.03 1016.06 1016.19 1016.07
1014.44 1014.63 1015.14 1015.70 1016.07 1016.85 1017.40 1018.49 1018.87 1020.37 1020.62 1020.57 1020.40 1020.27 1020.20 1020.08 1019.79 1019.56 1019.30 1019.09 1018.85 1018.74 1018.53 1018.31 1017.84 1017.37 1016.93 1016.75 1016.89 1017.27 1017.20 1017.12 1016.97 1016.81 1016.43 1016.19 1015.90 1015.70 1016.10 1015.85 1015.68 1015.77 1015.85 1015.87 1015.71 1015.57 1015.65 1015.63 1015.66
1014.66 1014.47 1015.00 1015.71 1016.18 1016.98 1017.45 1018.33 1019.50 1020.49 1020.62 1020.44 1020.40 1020.44 1020.54 1020.53 1020.32 1020.15 1020.03 1019.79 1019.43 1019.25 1019.21 1018.99 1018.58 1018.02 1017.60 1017.43 1017.34 1017.21 1017.14 1017.31 1017.43 1017.40 1017.28 1017.08 1016.98 1016.72 1016.48 1016.19 1015.96 1015.41 1015.43 1015.64 1015.61 1015.46 1015.43 1015.43 1015.43
1014.33 1014.46 1014.45 1015.64 1016.10 1017.00 1017.51 1017.60 1019.71 1020.52 1020.46 1020.44 1020.39 1020.48 1020.68 1020.76 1020.62 1020.57 1020.54 1020.31 1020.07 1019.63 1019.45 1019.45 1019.11 1018.65 1018.35 1018.12 1017.86 1017.63 1017.53 1017.31 1017.11 1016.86 1016.73 1016.89 1016.98 1017.07 1016.92 1016.75 1016.41 1016.22 1016.02 1015.81 1015.53 1015.54 1015.46 1015.27 1015.03
1014.05 1013.33 1014.32 1015.38 1016.36 1016.60 1017.04 1017.57 1019.50 1020.36 1020.48 1020.40 1020.31 1020.41 1020.58 1020.76 1020.81 1020.88 1020.84 1020.73 1020.55 1020.28 1019.99 1019.82 1019.60 1019.22 1018.89 1018.59 1018.29 1018.17 1018.01 1017.76 1017.50 1017.20 1017.03 1016.88 1016.86 1016.59 1016.18 1016.09 1016.37 1016.29 1015.98 1015.61 1015.50 1015.23 1015.24 1014.94 1014.83
1013.45 1013.74 1014.53 1014.95 1016.04 1016.45 1016.91 1017.83 1019.23 1020.07 1020.25 1020.16 1020.26 1020.37 1020.43 1020.53 1020.86 1021.04 1021.08 1021.02 1020.89 1020.61 1020.36 1020.19 1019.91 1019.79 1019.49 1019.23 1018.91 1018.53 1018.21 1017.92 1017.76 1017.60 1017.44 1017.15 1016.87 1016.71 1016.41 1015.94 1015.67 1015.77 1016.03 1015.89 1015.34 1015.02 1014.76 1014.84 1014.49
1014.46 1014.49 1014.73 1015.45 1016.51 1016.60 1016.93 1017.50 1018.64 1019.67 1020.06 1020.06 1020.11 1020.15 1020.26 1020.45 1020.93 1021.08 1021.15 1021.11 1020.90 1020.80 1020.62 1020.45 1020.32 1020.18 1019.94 1019.68 1019.36 1018.99 1018.59 1018.25 1018.03 1017.76 1017.57 1017.20 1017.01 1016.74 1016.47 1015.96 1015.65 1015.46 1015.53 1015.56 1015.50 1015.14 1014.57 1014.42 1014.55
1015.00 1014.87 1014.97 1015.99 1016.71 1016.75 1016.56 1016.76 1017.96 1019.02 1019.40 1019.64 1019.77 1019.93 1020.13 1020.46 1020.47 1020.72 1020.91 1021.06 1021.01 1020.90 1020.88 1020.65 1020.52 1020.44 1020.28 1020.17 1019.94 1019.57 1018.92 1018.60 1018.35 1017.91 1017.53 1017.16 1016.86 1016.62 1016.32 1015.91 1015.59 1015.29 1015.11 1015.07 1015.15 1015.34 1014.79 1014.23 1014.38
1015.33 1015.35 1015.54 1016.05 1016.64 1016.91 1016.77 1015.71 1017.05 1018.36 1019.00 1019.48 1019.73 1019.88 1020.18 1020.31 1020.30 1020.32 1020.49 1020.68 1020.88 1020.75 1020.91 1020.93 1020.75 1020.54 1020.32 1020.26 1020.08 1019.61 1019.07 1018.51 1018.08 1017.70 1017.44 1017.08 1016.80 1016.36 1016.03 1015.73 1015.36 1015.06 1014.87 1014.64 1014.54 1014.48 1014.89 1014.66 1014.25
1015.76 1016.34 1016.49 1016.61 1016.51 1015.95 1016.71 1015.14 1015.81 1016.92 1018.15 1018.76 1019.14 1019.58 1019.78 1020.14 1020.34 1020.41 1020.48 1020.48 1020.47 1020.64 1020.99 1020.90 1020.71 1020.44 1020.19 1020.07 1019.81 1019.45 1018.90 1018.28 1017.88 1017.60 1017.16 1016.91 1016.41 1015.95 1015.73 1015.42 1015.12 1014.85 1014.56 1014.22 1013.97 1013.86 1013.86 1014.30 1013.95
1016.79 1017.17 1017.02 1016.79 1016.35 1016.33 1016.03 1016.05 1014.73 1016.24 1017.05 1017.64 1018.34 1018.97 1019.53 1019.94 1020.24 1020.40 1020.53 1020.54 1020.43 1020.55 1020.74 1020.79 1020.51 1020.10 1019.91 1019.77 1019.62 1019.21 1018.68 1018.16 1017.47 1017.02 1016.69 1016.27 1015.91 1015.48 1015.18 1014.95 1014.73 1014.48 1014.21 1013.87 1013.62 1013.47 1013.13 1013.07 1013.29
1017.66 1017.43 1017.18 1016.81 1016.23 1015.34 1014.89 1015.41 1013.29 1015.06 1015.46 1016.41 1017.60 1018.60 1019.23 1019.80 1020.13 1020.27 1020.21 1020.21 1020.11 1020.31 1020.55 1020.45 1020.15 1019.86 1019.71 1019.41 1019.12 1018.74 1018.22 1017.58 1016.91 1016.40 1015.95 1015.60 1015.20 1014.88 1014.67 1014.49 1014.15 1013.89 1013.76 1013.62 1013.29 1012.98 1012.78 1012.54 1012.21
1017.52 1017.05 1015.89 1015.55 1015.29 1014.12 1015.23 1015.24 1013.04 1014.58 1015.56 1015.85 1017.00 1018.15 1018.92 1019.54 1019.87 1019.97 1019.88 1019.93 1020.00 1020.18 1020.18 1020.03 1019.79 1019.51 1019.24 1018.89 1018.59 1018.21 1017.71 1017.19 1016.48 1015.88 1015.30 1014.86 1014.47 1014.16 1013.90 1013.76 1013.63 1013.35 1013.09 1012.94 1012.95 1012.60 1012.28 1011.99 1011.69
1017.65 1017.34 1016.16 1015.13 1014.31 1014.10 1015.60 1014.15 1013.45 1015.22 1015.90 1016.33 1017.22 1018.05 1018.88 1019.33 1019.57 1019.69 1019.76 1019.96 1019.93 1019.97 1019.91 1019.71 1019.47 1019.09 1018.83 1018.52 1018.08 1017.57 1017.04 1016.52 1015.94 1015.42 1015.03 1014.43 1013.94 1013.60 1013.43 1013.17 1013.04 1012.78 1012.53 1012.18 1012.05 1011.88 1011.61 1011.45 1011.17
1018.20 1017.68 1017.67 1016.41 1016.03 1014.98 1013.31 1013.41 1013.95 1015.43 1016.09 1016.72 1017.34 1018.07 1018.58 1019.05 1019.32 1019.49 1019.73 1019.85 1019.75 1019.70 1019.58 1019.41 1019.05 1018.64 1018.32 1017.92 1017.43 1016.88 1016.40 1015.94 1015.39 1014.93 1014.50 1013.99 1013.54 1013.18 1012.90 1012.69 1012.30 1011.94 1011.67 1011.43 1011.19 1011.00 1010.67 1010.55 1010.40
1018.83 1018.67 1018.06 1017.01 1015.40 1013.95 1012.81 1013.13 1012.80 1014.61 1015.43 1016.37 1016.93 1017.46 1018.19 1018.96 1019.18 1019.33 1019.54 1019.58 1019.52 1019.38 1019.28 1019.05 1018.63 1018.19 1017.84 1017.52 1017.08 1016.54 1015.98 1015.43 1014.85 1014.29 1013.68 1013.28 1012.79 1012.49 1012.06 1011.85 1011.45 1010.96 1010.66 1010.52 1010.40 1010.13 1009.85 1009.79 1009.59
1019.47 1018.78 1018.49 1017.91 1016.71 1014.87 1013.43 1011.99 1012.95 1013.72 1014.52 1015.36 1016.19 1016.84 1017.64 1018.47 1019.01 1019.24 1019.28 1019.18 1019.14 1019.11 1018.86 1018.59 1018.27 1017.89 1017.50 1017.16 1016.74 1016.20 1015.53 1014.91 1014.24 1013.62 1012.97 1012.43 1012.09 1011.65 1011.18 1010.95 1010.50 1009.92 1009.68 1009.51 1009.35 1009.23 1008.99 1008.70 1008.74
1019.72 1018.96 1018.45 1017.68 1016.97 1016.54 1015.69 1013.16 1013.65 1014.33 1014.91 1015.43 1015.73 1016.44 1017.41 1018.53 1018.90 1019.05 1019.01 1018.93 1018.76 1018.61 1018.41 1018.21 1017.93 1017.61 1017.31 1016.91 1016.35 1015.70 1015.10 1014.44 1013.70 1012.98 1012.38 1011.93 1011.31 1010.77 1010.30 1010.06 1009.72 1008.99 1008.72 1008.66 1008.45 1008.28 1008.11 1007.97 1007.81
Wind_Speed
8 4 2 4 3 3 7 6 2 7 7 6 4 7 10 12 12 6 3 7 6 11 11 12 10 8 7 3 8 6 5 6 5 4 4 6 8 8 9 7 9 8 10 12 9 7 6 7 7
5 1 3 2 1 4 7 4 9 8 6 3 1 1 7 11 9 7 5 6 9 12 10 10 10 8 6 6 4 5 2 1 5 3 3 4 5 6 6 6 6 8 9 11 7 5 4 8 5
3 3 3 2 3 7 7 7 6 6 6 5 2 5 5 9 10 5 6 8 10 11 9 10 10 8 6 6 5 4 1 2 3 3 4 2 2 5 6 7 5 10 11 10 10 9 6 5 2
2 4 3 2 9 8 7 9 7 4 5 8 5 7 10 15 8 9 8 8 10 9 9 13 10 8 8 6 5 5 3 2 3 3 3 3 4 4 4 3 5 8 9 6 9 11 7 6 3
1 2 2 4 8 7 9 8 10 9 4 10 9 6 7 10 13 6 6 4 6 7 7 10 9 9 9 9 8 6 5 5 5 5 5 4 4 4 3 2 3 3 3 6 10 9 8 5 7
1 3 2 3 6 5 9 8 7 9 6 10 4 2 8 17 16 6 4 5 5 7 6 7 9 8 7 6 6 5 4 4 4 4 4 4 4 4 4 2 2 1 2 2 4 6 10 4 5
2 2 4 3 5 7 7 3 9 5 8 10 8 2 5 19 17 6 4 4 4 4 5 5 6 7 7 5 7 5 4 4 4 4 3 2 2 2 3 3 3 2 1 1 4 4 7 8 8
1 2 3 2 2 6 4 3 5 9 9 5 13 7 4 17 13 3 4 5 5 5 1 3 3 4 2 6 10 6 5 5 6 5 5 4 3 3 3 2 3 2 3 3 3 3 3 6 6
1 2 3 3 2 6 3 4 6 3 8 10 9 10 11 12 8 4 5 6 5 3 1 4 6 6 6 6 5 9 9 7 6 8 9 7 7 4 3 3 2 4 4 4 4 4 3 0 4
2 2 3 3 5 3 2 3 6 1 5 8 11 11 10 8 7 8 7 6 7 7 8 9 8 8 8 5 8 7 6 7 9 7 6 6 5 4 5 4 4 6 5 5 5 5 3 7 5
2 3 3 6 5 2 1 4 5 2 8 9 9 11 10 10 11 11 11 10 9 9 8 9 9 9 11 7 6 4 4 5 5 7 6 6 4 5 5 4 5 5 6 5 6 6 6 5 4
2 4 4 5 3 3 3 5 7 11 6 5 7 7 10 13 13 13 13 13 12 12 12 12 11 8 8 5 4 5 6 7 6 5 7 5 5 5 6 5 5 5 5 6 5 4 5 6 7
1 3 5 7 10 9 12 10 8 9 6 5 6 8 10 11 12 12 12 13 14 14 13 15 15 13 10 5 4 3 4 5 8 7 7 5 7 7 6 6 6 6 6 6 6 6 6 7 7
3 2 4 7 8 9 7 5 2 5 4 6 7 9 11 12 11 12 13 13 14 14 15 15 15 15 14 9 8 6 5 5 5 5 7 11 9 7 7 8 7 7 7 7 7 7 7 6 7
2 3 7 6 5 4 8 6 6 5 4 6 7 9 10 10 10 12 11 13 12 12 14 14 14 15 14 13 11 8 7 5 4 4 6 7 6 8 8 7 9 8 7 9 8 8 7 7 7
2 3 6 5 1 3 10 1 7 5 6 6 6 8 8 9 9 10 10 11 11 12 14 13 12 15 14 13 10 8 8 7 7 7 6 7 6 7 6 6 7 7 7 8 8 8 8 8 8
3 6 4 5 3 1 4 2 8 7 7 7 7 7 7 8 8 8 9 9 9 10 11 12 14 15 15 13 9 8 9 8 7 7 7 10 9 9 9 7 7 6 6 8 9 9 9 9 9
3 5 3 5 3 2 3 3 9 9 10 9 8 7 6 6 6 5 6 6 7 8 9 11 10 12 12 9 10 9 9 8 7 7 8 11 8 10 9 7 8 7 7 7 10 12 10 10 9
2 3 5 1 1 5 2 5 10 11 10 10 9 8 6 4 3 2 3 3 5 7 9 9 10 11 9 8 9 9 9 9 8 8 11 11 9 9 9 7 8 6 7 9 10 10 13 11 9
3 5 5 1 1 5 4 10 10 13 12 11 10 9 6 5 4 2 1 2 4 5 7 8 9 9 8 7 8 8 9 9 9 8 11 12 11 11 9 9 8 8 7 8 10 8 9 11 10
4 7 3 4 1 2 7 10 12 14 11 11 10 7 6 6 5 4 4 4 5 6 6 7 8 9 9 9 8 8 10 9 9 9 10 10 13 12 11 11 10 10 8 7 9 9 10 8 6
6 2 1 3 5 5 3 6 8 13 15 14 14 11 9 7 7 6 7 9 9 7 6 7 8 10 9 10 10 14 12 12 11 11 10 11 14 13 12 13 13 12 10 11 9 8 9 9 10
4 1 3 4 7 6 7 6 6 9 14 17 15 12 9 8 5 6 7 8 9 7 6 7 9 12 14 14 15 12 14 13 12 12 15 15 14 15 14 13 13 13 11 12 13 12 11 9 10
3 3 1 2 3 6 6 5 4 7 8 13 14 12 9 8 6 6 5 4 5 5 6 8 13 15 16 16 17 17 18 17 15 15 14 13 13 12 14 15 14 13 13 14 13 13 13 11 11
4 6 4 5 5 3 5 6 9 3 5 10 16 13 11 7 5 4 5 6 7 8 10 12 15 17 18 18 18 19 19 20 19 18 14 17 14 13 14 15 15 13 15 14 14 15 14 13 12
1 4 5 6 4 4 3 7 2 2 4 8 12 10 7 6 5 5 6 7 8 10 13 16 17 19 18 19 19 18 19 13 14 16 15 14 14 14 17 16 17 18 17 16 15 13 13 14 12
5 5 4 5 1 5 3 5 8 5 9 11 13 11 8 4 5 6 7 8 10 13 16 17 18 19 19 19 18 19 18 19 16 20 18 14 17 15 18 19 20 19 18 17 17 13 16 15 14
4 4 3 3 5 6 5 6 9 10 13 14 15 14 10 4 5 7 8 10 12 15 16 17 19 20 20 20 18 17 19 20 19 18 20 19 17 20 19 19 21 20 18 17 17 15 16 17 13
5 4 2 4 5 6 7 4 4 1 5 12 14 14 12 8 7 8 9 12 14 15 17 18 18 19 19 19 19 20 19 20 20 19 20 19 20 21 20 19 20 19 18 17 15 17 18 18 16
3 3 6 5 4 2 4 10 4 2 2 5 9 10 12 9 8 9 11 13 15 16 17 18 18 19 18 19 20 21 21 21 21 20 21 21 21 21 19 19 19 19 17 17 16 17 17 18 17
Wind_Direction
296 309 259 227 209 94 79 69 360 51 63 23 28 19 53 41 25 44 86 135 130 145 149 170 158 170 173 147 125 104 64 91 81 59 40 18 22 36 46 15 58 44 46 42 71 67 71 80 82
316 246 229 264 87 91 83 50 58 44 36 352 38 335 54 74 46 83 124 126 144 146 152 154 161 169 179 148 124 107 136 133 128 93 47 22 19 30 17 31 46 57 41 45 52 62 51 92 85
276 280 279 27 46 60 76 38 36 20 57 12 64 34 24 12 38 38 81 135 146 148 149 123 165 168 182 174 157 173 153 54 58 93 70 46 46 56 342 28 62 45 48 34 36 25 29 46 73
293 198 164 81 88 63 48 40 16 103 48 34 357 75 97 33 3 3 127 134 148 147 153 132 164 177 183 199 183 192 178 170 121 117 112 113 93 68 353 55 17 24 32 21 29 15 7 24 49
304 250 125 106 88 95 55 42 36 49 46 25 346 71 80 39 359 53 113 126 131 141 147 156 172 195 196 195 189 203 201 188 174 171 158 155 138 114 72 36 18 21 15 9 4 353 355 349 42
206 287 141 101 94 95 62 39 35 46 44 25 47 29 84 48 19 41 112 119 115 135 156 154 177 210 213 218 212 227 227 214 207 195 179 177 160 152 145 138 106 59 335 5 329 328 348 322 28
9 321 67 99 93 112 37 11 31 29 32 39 337 357 107 34 359 10 103 99 111 123 160 175 181 181 220 233 230 243 238 227 234 235 235 230 220 192 178 172 173 177 187 255 294 330 26 46 69
17 284 131 68 85 94 29 25 15 31 62 98 359 26 9 340 331 31 110 107 103 111 138 236 213 215 258 211 210 225 249 226 235 231 233 232 250 255 226 254 213 233 219 227 262 297 59 66 77
304 241 77 91 119 104 41 6 52 47 73 60 49 17 332 333 350 52 99 82 64 34 315 268 266 265 238 245 187 198 231 219 231 218 214 230 250 233 214 70 337 267 269 268 272 286 324 344 164
349 333 67 46 64 82 47 14 339 248 78 66 37 29 13 17 34 53 50 46 35 19 357 336 304 267 266 238 264 241 221 210 210 224 228 229 242 264 302 323 246 262 258 258 261 263 296 267 252
48 48 105 81 84 347 293 78 27 187 63 40 8 16 27 40 45 46 46 39 29 21 9 356 330 303 314 280 298 277 270 255 238 246 238 246 246 233 226 235 221 230 190 245 209 208 239 249 259
171 87 46 62 352 198 129 94 79 53 77 44 39 29 44 51 49 45 45 41 35 36 25 16 359 331 280 268 289 292 302 282 274 242 267 258 244 251 253 248 246 233 229 238 243 245 241 238 247
103 88 69 92 85 94 101 81 100 80 74 81 79 65 60 57 58 53 52 48 43 39 32 28 21 16 5 8 340 311 296 312 293 287 279 252 272 266 261 254 249 248 245 240 230 228 229 235 240
67 32 79 114 125 134 119 113 216 84 116 102 89 76 68 61 55 57 49 45 47 43 37 33 30 30 31 28 28 13 357 352 337 327 321 307 278 270 296 279 266 257 253 255 243 235 230 234 232
112 164 137 106 170 119 140 121 98 120 144 117 105 94 82 73 66 59 49 48 42 47 45 36 29 32 34 36 34 29 22 21 2 343 326 326 334 332 310 273 279 274 256 256 258 255 245 244 239
208 218 201 89 184 127 203 250 153 161 170 139 123 109 100 85 75 68 55 51 45 45 46 43 35 35 33 30 27 25 24 20 15 12 359 343 308 292 289 280 264 269 272 268 253 247 248 247 237
199 273 230 168 79 239 242 101 162 179 189 169 153 135 121 111 91 71 61 52 45 44 36 36 30 24 21 19 21 18 15 10 7 1 359 357 0 343 304 269 273 279 277 262 254 250 246 248 242
246 249 215 254 104 275 265 172 167 179 194 182 168 157 152 135 96 76 61 50 48 38 38 29 27 20 15 9 6 3 360 360 354 353 347 340 343 340 332 320 300 270 263 261 267 254 253 248 252
187 233 261 243 38 285 245 198 188 184 195 191 188 180 173 156 126 120 64 41 28 32 23 21 16 8 8 359 359 350 349 341 341 340 335 331 324 325 323 321 313 306 272 264 262 269 250 252 246
214 255 255 156 122 279 259 256 200 192 200 198 192 195 189 189 194 181 300 318 350 349 8 1 3 353 350 343 338 330 326 331 326 314 326 325 325 314 306 310 310 306 296 277 262 258 265 249 243
226 264 259 309 238 234 292 251 197 205 204 201 213 212 213 229 252 264 273 291 292 305 338 335 335 335 333 322 314 309 310 301 308 315 314 316 313 308 299 302 302 301 298 289 286 254 237 248 262
267 145 169 276 288 291 304 306 190 193 208 209 209 208 216 226 244 268 295 290 277 287 301 301 320 324 327 323 311 307 301 298 296 299 298 296 295 296 290 295 296 296 293 285 280 266 255 228 245
36 4 303 280 261 295 176 243 114 187 215 212 210 211 221 226 241 282 288 291 288 280 296 303 306 317 323 318 314 305 295 294 292 287 290 290 289 285 286 285 289 290 288 286 283 281 268 239 246
120 213 201 189 213 235 132 240 196 184 232 204 201 199 199 199 236 266 283 303 312 296 291 305 316 315 314 307 305 300 300 296 289 286 287 287 286 282 279 280 285 288 282 281 278 272 267 267 251
236 253 233 207 207 3 147 223 283 223 220 203 184 187 184 192 228 285 323 334 326 321 317 313 312 310 311 307 305 302 298 295 291 290 285 285 281 279 280 275 279 284 286 275 276 272 266 262 258
54 296 308 291 290 360 154 236 93 4 184 178 175 177 185 207 229 294 317 317 312 315 312 312 312 308 308 307 303 300 296 291 289 286 288 286 287 285 287 285 282 278 277 276 268 268 256 260 263
125 227 19 283 197 257 210 235 187 175 168 177 186 191 194 217 262 288 289 299 308 308 310 309 309 306 306 305 304 301 297 293 290 291 287 288 284 282 278 280 277 269 269 271 271 266 260 258 259
285 97 220 189 268 264 203 273 271 192 198 200 207 212 207 230 294 285 282 295 305 307 309 306 308 308 308 307 305 304 301 296 292 288 287 279 284 283 283 285 274 265 259 261 264 263 257 258 261
159 203 206 298 270 290 299 276 47 346 215 216 223 226 226 241 300 298 298 307 311 306 310 312 311 310 309 309 307 302 298 296 293 291 288 282 286 282 279 281 276 262 258 257 257 258 258 257 259
296 271 242 255 178 252 304 272 106 265 283 266 248 239 228 247 297 296 309 310 307 310 310 313 313 311 308 307 305 302 302 300 296 292 290 289 286 281 280 280 272 262 257 256 257 254 258 258 256